GW5170 Weather Reports


Display with metric or nautical units.
time (UTC)temp
F
wind
direction
speed
MPH
gust
MPH
rain 1hr
in
rain 24hr
in
rain mn
in
humidity
%
barometer
mb
20260906194741 82 37 4.0 6.0 0.00 0.00 0.00 64 1019.6
20260906194236 82 168 3.0 4.0 0.00 0.00 0.00 64 1019.9
20260906193731 82 131 2.0 3.0 0.00 0.00 0.00 64 1019.7
20260906193231 82 152 6.0 7.0 0.00 0.00 0.00 64 1019.9
20260906192727 82 166 5.0 6.0 0.00 0.00 0.00 63 1019.8
20260906192222 82 76 3.0 4.0 0.00 0.00 0.00 64 1019.8
20260906191715 81 138 6.0 8.0 0.00 0.00 0.00 64 1019.8
20260906191215 83 62 4.0 6.0 0.00 0.00 0.00 63 1019.7
20260906190709 81 191 3.0 3.0 0.00 0.00 0.00 64 1019.7
20260906190204 81 97 4.0 4.0 0.00 0.00 0.00 65 1019.9
20260906185703 81 166 4.0 6.0 0.00 0.00 0.00 65 1019.7
20260906185202 81 56 3.0 3.0 0.00 0.00 0.00 66 1019.9
20260906184657 80 111 4.0 6.0 0.00 0.00 0.00 68 1020.0
20260906184153 80 41 2.0 2.0 0.00 0.00 0.00 67 1020.1
20260906183648 81 110 6.0 8.0 0.00 0.00 0.00 67 1020.1
20260906183144 81 117 5.0 8.0 0.00 0.00 0.00 65 1020.1
20260906182645 80 81 5.0 7.0 0.00 0.00 0.00 69 1019.9
20260906182141 81 331 2.0 2.0 0.00 0.00 0.00 67 1020.0
20260906181636 80 83 3.0 6.0 0.00 0.00 0.00 68 1020.1
20260906181132 79 79 4.0 4.0 0.00 0.00 0.00 69 1020.1
20260906180627 81 63 5.0 6.0 0.00 0.00 0.00 66 1020.1
20260906180126 80 196 4.0 6.0 0.00 0.00 0.00 66 1020.4
20260906175625 80 352 2.0 3.0 0.00 0.00 0.00 70 1020.4
20260906175120 81 58 1.0 1.0 0.00 0.00 0.00 68 1020.3
20260906174618 81 191 4.0 6.0 0.00 0.00 0.00 67 1020.4
20260906174114 78 346 1.0 2.0 0.00 0.00 0.00 71 1020.4
20260906173609 79 198 4.0 4.0 0.00 0.00 0.00 72 1020.5
20260906173104 80 195 4.0 4.0 0.00 0.00 0.00 70 1020.5
20260906172603 80 81 4.0 4.0 0.00 0.00 0.00 70 1020.3
20260906172059 79 145 3.0 3.0 0.00 0.00 0.00 71 1020.1
20260906171558 79 199 4.0 6.0 0.00 0.00 0.00 71 1020.5
20260906171054 79 120 5.0 6.0 0.00 0.00 0.00 70 1020.5
20260906170550 78 67 3.0 4.0 0.00 0.00 0.00 72 1020.2
20260906170049 78 34 3.0 4.0 0.00 0.00 0.00 73 1020.4
20260906165546 78 181 8.0 9.0 0.00 0.00 0.00 72 1020.5
20260906165041 79 90 4.0 7.0 0.00 0.00 0.00 71 1020.4
20260906164540 78 133 4.0 4.0 0.00 0.00 0.00 74 1020.7
20260906164036 78 34 1.0 2.0 0.00 0.00 0.00 74 1020.7
20260906163531 77 131 3.0 4.0 0.00 0.00 0.00 76 1020.8
20260906163027 78 35 2.0 2.0 0.00 0.00 0.00 74 1020.7
20260906162524 77 9 2.0 3.0 0.00 0.00 0.00 75 1020.8
20260906162019 78 140 4.0 6.0 0.00 0.00 0.00 73 1020.7
20260906161514 79 67 3.0 6.0 0.00 0.00 0.00 72 1020.7
20260906161013 76 53 1.0 1.0 0.00 0.00 0.00 76 1020.5
20260906160512 78 141 4.0 6.0 0.00 0.00 0.00 74 1020.8
20260906160011 77 96 4.0 6.0 0.00 0.00 0.00 73 1020.8
20260906155509 77 136 4.0 4.0 0.00 0.00 0.00 75 1020.9
20260906155005 77 85 4.0 6.0 0.00 0.00 0.00 77 1020.8
20260906154500 76 41 2.0 2.0 0.00 0.00 0.00 78 1020.9
20260906153959 76 59 2.0 3.0 0.00 0.00 0.00 77 1020.7
20260906153457 78 144 4.0 4.0 0.00 0.00 0.00 75 1020.9
20260906152953 76 80 2.0 2.0 0.00 0.00 0.00 78 1020.8
20260906152453 75 183 4.0 4.0 0.00 0.00 0.00 79 1020.8
20260906151947 77 307 4.0 4.0 0.00 0.00 0.00 77 1020.8
20260906151442 77 64 2.0 3.0 0.00 0.00 0.00 77 1020.6
20260906150938 76 168 5.0 7.0 0.00 0.00 0.00 78 1020.5
20260906150433 75 84 4.0 6.0 0.00 0.00 0.00 79 1020.5
20260906145932 75 31 4.0 6.0 0.00 0.00 0.00 80 1020.4
20260906145431 75 84 3.0 4.0 0.00 0.00 0.00 79 1020.7
20260906144926 75 119 5.0 6.0 0.00 0.00 0.00 79 1020.4
20260906144421 74 40 5.0 7.0 0.00 0.00 0.00 80 1020.4
20260906143916 75 100 6.0 8.0 0.00 0.00 0.00 80 1020.3
20260906143412 74 87 5.0 7.0 0.00 0.00 0.00 80 1020.4
20260906142908 74 62 4.0 6.0 0.00 0.00 0.00 79 1020.3
20260906142407 74 122 3.0 6.0 0.00 0.00 0.00 79 1020.2
20260906141902 73 84 2.0 3.0 0.00 0.00 0.00 82 1020.4
20260906141356 73 68 4.0 7.0 0.00 0.00 0.00 81 1020.3
20260906140856 73 3 1.0 1.0 0.00 0.00 0.00 83 1020.2
20260906140350 73 77 4.0 6.0 0.00 0.00 0.00 83 1020.2
20260906135848 73 87 4.0 4.0 0.00 0.00 0.00 82 1020.4
20260906135342 72 59 2.0 4.0 0.00 0.00 0.00 84 1020.4
20260906134838 71 70 3.0 4.0 0.00 0.00 0.00 84 1020.3
20260906134333 71 62 1.0 2.0 0.00 0.00 0.00 85 1020.4
20260906133828 72 64 2.0 3.0 0.00 0.00 0.00 84 1020.2
20260906133324 72 44 2.0 2.0 0.00 0.00 0.00 83 1020.4
20260906132819 71 18 2.0 3.0 0.00 0.00 0.00 85 1020.2
20260906132314 71 47 1.0 1.0 0.00 0.00 0.00 85 1020.6
20260906131810 70 2 2.0 2.0 0.00 0.00 0.00 86 1020.5
20260906131305 70 43 4.0 4.0 0.00 0.00 0.00 88 1020.5
20260906130801 70 80 3.0 4.0 0.00 0.00 0.00 87 1020.5
20260906130255 69 40 1.0 2.0 0.00 0.00 0.00 89 1020.3
20260906125754 69 50 2.0 2.0 0.00 0.00 0.00 90 1020.3
20260906125252 68 41 1.0 2.0 0.00 0.00 0.00 91 1020.4
20260906124752 68 44 2.0 3.0 0.00 0.00 0.00 92 1020.3
20260906124248 68 45 3.0 4.0 0.00 0.00 0.00 91 1020.3
20260906123746 68 44 2.0 2.0 0.00 0.00 0.00 92 1020.2
20260906123242 68 31 2.0 2.0 0.00 0.00 0.00 93 1020.0
20260906122741 68 37 3.0 3.0 0.00 0.00 0.00 93 1020.1
20260906122237 68 8 1.0 2.0 0.00 0.00 0.00 93 1020.2
20260906121733 68 12 1.0 2.0 0.00 0.00 0.00 93 1020.1
20260906121230 67 0 2.0 2.0 0.00 0.00 0.00 94 1020.0
20260906120725 67 20 1.0 2.0 0.00 0.00 0.00 94 1020.0
20260906120222 67 22 0.0 1.0 0.00 0.00 0.00 94 1019.8
20260906115717 67 49 3.0 3.0 0.00 0.00 0.00 94 1020.0
20260906115212 67 36 3.0 3.0 0.00 0.00 0.00 94 1019.8
20260906114711 67 33 2.0 2.0 0.00 0.00 0.00 95 1019.8
20260906114206 67 53 3.0 3.0 0.00 0.00 0.00 94 1019.8
20260906113701 67 59 5.0 7.0 0.00 0.00 0.00 95 1019.7
20260906113201 67 15 1.0 2.0 0.00 0.00 0.00 94 1019.4
20260906112700 67 78 4.0 4.0 0.00 0.00 0.00 94 1019.4
20260906112157 67 35 2.0 2.0 0.00 0.00 0.00 94 1019.5
20260906111656 67 59 3.0 3.0 0.00 0.00 0.00 94 1019.6
20260906111151 67 67 3.0 4.0 0.00 0.00 0.00 94 1019.5
20260906110646 67 26 3.0 6.0 0.00 0.00 0.00 94 1019.6
20260906110142 67 10 2.0 2.0 0.00 0.00 0.00 94 1019.5
20260906105635 67 5 2.0 2.0 0.00 0.00 0.00 94 1019.5
20260906105132 67 9 0.0 1.0 0.00 0.00 0.00 94 1019.2
20260906104631 68 37 2.0 2.0 0.00 0.00 0.00 94 1019.2
20260906104131 68 341 0.0 1.0 0.00 0.00 0.00 94 1019.1
20260906103629 68 46 2.0 3.0 0.00 0.00 0.00 94 1018.9
20260906103124 68 37 2.0 2.0 0.00 0.00 0.00 94 1018.6
20260906102620 68 48 3.0 4.0 0.00 0.00 0.00 93 1018.6
20260906102114 68 54 1.0 1.0 0.00 0.00 0.00 93 1018.5
20260906101614 68 79 2.0 4.0 0.00 0.00 0.00 93 1018.5
20260906101114 69 49 3.0 3.0 0.00 0.00 0.00 92 1018.6
20260906100610 69 27 2.0 2.0 0.00 0.00 0.00 92 1018.4
20260906100110 69 35 1.0 1.0 0.00 0.00 0.00 92 1018.4
20260906095610 69 54 2.0 2.0 0.00 0.00 0.00 92 1018.6
20260906095105 69 42 2.0 3.0 0.00 0.00 0.00 92 1018.4
20260906094604 69 22 2.0 3.0 0.00 0.00 0.00 92 1018.4
20260906094101 69 28 2.0 2.0 0.00 0.00 0.00 91 1018.3
20260906093556 69 3 0.0 1.0 0.00 0.00 0.00 91 1018.3
20260906093051 69 16 1.0 1.0 0.00 0.00 0.00 91 1018.3
20260906092546 69 50 2.0 2.0 0.00 0.00 0.00 91 1018.3
20260906092041 69 54 2.0 2.0 0.00 0.00 0.00 91 1018.2
20260906091537 69 46 3.0 4.0 0.00 0.00 0.00 91 1018.3
20260906091033 69 24 3.0 3.0 0.00 0.00 0.00 90 1018.3
20260906090534 70 15 1.0 1.0 0.00 0.00 0.00 90 1018.5
20260906090034 70 3 0.0 1.0 0.00 0.00 0.00 90 1018.4
20260906085532 70 94 2.0 3.0 0.00 0.00 0.00 90 1018.5
20260906085033 69 9 1.0 2.0 0.00 0.00 0.00 91 1018.3
20260906084533 69 57 2.0 2.0 0.00 0.00 0.00 91 1018.4
20260906084031 69 22 2.0 2.0 0.00 0.00 0.00 91 1018.5
20260906083527 69 28 1.0 2.0 0.00 0.00 0.00 90 1018.5
20260906083027 70 53 2.0 3.0 0.00 0.00 0.00 90 1018.5
20260906082522 70 32 2.0 2.0 0.00 0.00 0.00 90 1018.5
20260906082018 70 68 2.0 3.0 0.00 0.00 0.00 90 1018.6
20260906081514 70 20 4.0 4.0 0.00 0.00 0.00 90 1018.6
20260906081009 70 43 2.0 3.0 0.00 0.00 0.00 90 1018.5
20260906080506 70 54 2.0 3.0 0.00 0.00 0.00 90 1018.5
20260906080002 70 5 0.0 0.0 0.00 0.00 0.00 90 1018.6
20260906075456 70 2 1.0 1.0 0.00 0.00 0.00 90 1018.7
20260906074951 70 46 1.0 2.0 0.00 0.00 0.00 90 1018.5
20260906074450 70 10 1.0 2.0 0.00 0.00 0.00 90 1018.6
20260906073949 70 51 2.0 2.0 0.00 0.00 0.00 90 1018.5
20260906073444 70 59 2.0 3.0 0.00 0.00 0.00 90 1018.6
20260906072940 70 3 1.0 1.0 0.00 0.00 0.00 90 1018.2
20260906072435 70 48 4.0 4.0 0.00 0.00 0.00 89 1018.4
20260906071931 71 9 1.0 2.0 0.00 0.00 0.00 89 1018.5
20260906071427 71 28 1.0 2.0 0.00 0.00 0.00 88 1018.4
20260906070923 71 48 1.0 2.0 0.00 0.00 0.00 88 1018.5
20260906070418 71 67 2.0 2.0 0.00 0.00 0.00 88 1018.5
20260906065914 71 69 2.0 2.0 0.00 0.00 0.00 89 1018.6
20260906065408 71 42 1.0 2.0 0.00 0.00 0.00 88 1018.7
20260906064904 72 57 4.0 4.0 0.00 0.00 0.00 88 1018.9
20260906064400 72 0 2.0 2.0 0.00 0.00 0.00 88 1019.0
20260906063900 72 57 4.0 6.0 0.00 0.00 0.00 87 1018.9
20260906063355 72 76 4.0 4.0 0.00 0.00 0.00 87 1019.2
20260906062850 72 35 4.0 6.0 0.00 0.00 0.00 87 1018.7
20260906062349 72 98 2.0 4.0 0.00 0.00 0.00 87 1018.9
20260906061845 73 113 5.0 8.0 0.00 0.00 0.00 87 1018.9
20260906061342 73 60 3.0 7.0 0.00 0.00 0.00 88 1018.7
20260906060837 73 74 2.0 2.0 0.00 0.00 0.00 90 1018.7
20260906060334 73 132 2.0 4.0 0.00 0.00 0.00 90 1018.6
20260906055830 73 8 2.0 3.0 0.00 0.00 0.00 89 1018.9
20260906055326 73 71 2.0 3.0 0.00 0.00 0.00 89 1018.6
20260906054820 73 343 1.0 2.0 0.00 0.00 0.00 89 1018.6
20260906054315 73 56 2.0 3.0 0.00 0.00 0.00 89 1018.9
20260906053812 73 51 1.0 2.0 0.00 0.00 0.00 89 1018.5
20260906053308 73 31 1.0 1.0 0.00 0.00 0.00 88 1018.5
20260906052803 73 69 2.0 2.0 0.00 0.00 0.00 88 1018.7
20260906052259 73 18 1.0 1.0 0.00 0.00 0.00 88 1018.6
20260906051756 74 23 1.0 2.0 0.00 0.00 0.00 87 1018.6
20260906051255 74 23 2.0 3.0 0.00 0.00 0.00 87 1018.7
20260906050750 74 352 1.0 1.0 0.00 0.00 0.00 87 1018.6
20260906050246 74 65 1.0 3.0 0.00 0.00 0.00 87 1018.9
20260906045744 74 357 1.0 2.0 0.00 0.00 0.00 86 1019.0
20260906045239 74 2 2.0 3.0 0.00 0.00 0.00 86 1018.6
20260906044735 74 25 3.0 3.0 0.00 0.00 0.00 86 1018.6
20260906044230 74 13 2.0 3.0 0.00 0.00 0.00 86 1018.6
20260906043726 74 21 2.0 2.0 0.00 0.00 0.00 86 1018.4
20260906043221 74 353 1.0 2.0 0.00 0.00 0.00 86 1018.4
20260906042720 74 6 1.0 1.0 0.00 0.00 0.00 86 1018.3
20260906042220 75 7 3.0 3.0 0.00 0.00 0.00 85 1018.3
20260906041715 75 4 1.0 1.0 0.00 0.00 0.00 85 1018.2
20260906041210 75 3 0.0 0.0 0.00 0.00 0.00 85 1018.1
20260906040706 75 355 1.0 1.0 0.00 0.00 0.00 85 1018.1
20260906040201 75 0 1.0 1.0 0.00 0.00 0.00 86 1017.8
20260906035656 75 348 1.0 1.0 0.00 0.00 0.00 86 1017.8
20260906035152 75 357 0.0 1.0 0.00 0.00 0.00 87 1017.7
20260906034647 75 342 0.0 0.0 0.00 0.00 0.00 87 1017.6
20260906034141 75 3 1.0 2.0 0.00 0.00 0.00 86 1017.6
20260906033637 75 24 1.0 2.0 0.00 0.00 0.00 86 1017.8
20260906033132 75 352 0.0 1.0 0.00 0.00 0.00 86 1017.7
20260906032629 75 352 2.0 2.0 0.00 0.00 0.00 86 1017.8
20260906032128 75 348 2.0 2.0 0.00 0.00 0.00 86 1017.7
20260906031624 75 12 2.0 2.0 0.00 0.00 0.00 86 1017.7
20260906031119 75 357 1.0 2.0 0.00 0.00 0.00 85 1017.4
20260906030612 75 3 1.0 1.0 0.00 0.00 0.00 86 1017.3
20260906030108 75 21 2.0 2.0 0.00 0.00 0.00 85 1017.4
20260906025607 76 48 1.0 2.0 0.00 0.00 0.00 85 1017.3
20260906025106 75 7 2.0 2.0 0.00 0.00 0.00 85 1017.3
20260906024601 75 359 1.0 2.0 0.00 0.00 0.00 85 1017.2
20260906024055 75 357 1.0 2.0 0.00 0.00 0.00 86 1017.1
20260906023551 75 352 1.0 1.0 0.00 0.00 0.00 86 1016.9
20260906023046 75 353 0.0 1.0 0.00 0.00 0.00 86 1017.0
20260906022542 75 345 1.0 1.0 0.00 0.00 0.00 86 1017.0
20260906022037 75 13 3.0 3.0 0.00 0.00 0.00 87 1016.9
20260906021532 75 6 1.0 2.0 0.00 0.00 0.00 86 1016.8
20260906021031 76 23 2.0 2.0 0.00 0.00 0.00 86 1016.7
20260906020530 76 43 3.0 3.0 0.00 0.00 0.00 85 1016.5
20260906020025 76 30 1.0 2.0 0.00 0.00 0.00 85 1016.6
20260906015524 76 346 0.0 0.0 0.00 0.00 0.00 85 1016.5
20260906015023 76 26 2.0 2.0 0.00 0.00 0.00 85 1016.4
20260906014518 76 1 1.0 1.0 0.00 0.00 0.00 85 1016.2
20260906014014 76 342 1.0 2.0 0.00 0.00 0.00 84 1016.4
20260906013509 77 14 1.0 2.0 0.00 0.00 0.00 84 1016.2
20260906013005 76 2 1.0 2.0 0.00 0.00 0.00 84 1016.4
20260906012500 77 350 0.0 0.0 0.00 0.00 0.00 83 1016.3
20260906011959 77 352 0.0 0.0 0.00 0.00 0.00 83 1016.3
20260906011455 77 24 2.0 2.0 0.00 0.00 0.00 82 1016.3
20260906010950 77 12 2.0 2.0 0.00 0.00 0.00 82 1016.3
20260906010445 77 11 1.0 2.0 0.00 0.00 0.00 82 1016.3
20260906005942 77 50 2.0 2.0 0.00 0.00 0.00 81 1016.3
20260906005441 77 1 1.0 1.0 0.00 0.00 0.00 81 1016.1
20260906004939 77 49 2.0 3.0 0.00 0.00 0.00 81 1016.3
20260906004434 78 37 2.0 2.0 0.00 0.00 0.00 81 1016.3
20260906003930 78 42 2.0 3.0 0.00 0.00 0.00 80 1016.2
20260906003430 78 19 0.0 1.0 0.00 0.00 0.00 80 1016.3
20260906002925 78 53 2.0 3.0 0.00 0.00 0.00 80 1016.4
20260906002425 78 44 2.0 3.0 0.00 0.00 0.00 80 1016.3
20260906001920 78 36 4.0 4.0 0.00 0.00 0.00 80 1016.5
20260906001416 78 52 2.0 3.0 0.00 0.00 0.00 79 1016.5
20260906000911 78 40 4.0 4.0 0.00 0.00 0.00 79 1016.4
20260906000406 79 14 2.0 3.0 0.00 0.00 0.00 79 1016.5
20260905235900 79 49 4.0 7.0 0.00 0.00 0.00 79 1016.5
20260905235355 79 35 6.0 9.0 0.00 0.00 0.00 78 1016.7
20260905234850 79 71 3.0 4.0 0.00 0.00 0.00 78 1016.5
20260905234345 80 20 2.0 3.0 0.00 0.00 0.00 78 1016.4
20260905233840 80 70 4.0 4.0 0.00 0.00 0.00 78 1016.3
20260905233335 80 39 6.0 7.0 0.00 0.00 0.00 78 1016.4
20260905232834 80 49 2.0 2.0 0.00 0.00 0.00 77 1016.1
20260905232331 80 124 9.0 9.0 0.00 0.00 0.00 77 1016.3
20260905231826 81 80 3.0 6.0 0.00 0.00 0.00 76 1016.3
20260905231321 81 95 5.0 7.0 0.00 0.00 0.00 76 1016.2
20260905230818 82 26 6.0 7.0 0.00 0.00 0.00 76 1016.4
20260905230315 82 60 6.0 8.0 0.00 0.00 0.00 75 1016.1
20260905225815 82 52 3.0 3.0 0.00 0.00 0.00 74 1016.2
20260905225310 82 49 5.0 7.0 0.00 0.00 0.00 75 1015.9
20260905224810 82 42 6.0 9.0 0.00 0.00 0.00 76 1015.9
20260905224305 82 57 4.0 6.0 0.00 0.00 0.00 76 1016.0
20260905223800 82 72 3.0 3.0 0.00 0.00 0.00 76 1016.1
20260905223258 82 71 3.0 4.0 0.00 0.00 0.00 77 1016.0
20260905222753 82 54 3.0 4.0 0.00 0.00 0.00 75 1016.2
20260905222252 83 35 8.0 10.0 0.00 0.00 0.00 74 1016.1
20260905221748 84 78 7.0 9.0 0.00 0.00 0.00 74 1016.2
20260905221244 84 71 2.0 3.0 0.00 0.00 0.00 73 1016.2
20260905220740 83 46 5.0 7.0 0.00 0.00 0.00 73 1016.2
20260905220236 83 48 3.0 4.0 0.00 0.00 0.00 73 1016.2
20260905215735 82 43 5.0 7.0 0.00 0.00 0.00 74 1016.2
20260905215231 83 53 8.0 8.0 0.00 0.00 0.00 73 1016.0
20260905214721 84 30 5.0 6.0 0.00 0.00 0.00 73 1016.2
20260905214216 83 51 4.0 7.0 0.00 0.00 0.00 74 1015.9
20260905213712 84 20 4.0 4.0 0.00 0.00 0.00 73 1016.0
20260905213208 84 57 9.0 10.0 0.00 0.00 0.00 72 1015.9
20260905212702 84 19 5.0 7.0 0.00 0.00 0.00 71 1016.0
20260905212156 83 65 4.0 4.0 0.00 0.00 0.00 73 1016.1
20260905211650 83 61 8.0 9.0 0.00 0.00 0.00 72 1015.9
20260905211145 83 353 4.0 6.0 0.00 0.00 0.00 73 1016.2
20260905210643 83 357 1.0 1.0 0.00 0.00 0.00 74 1016.1
20260905210136 82 51 5.0 7.0 0.00 0.00 0.00 77 1016.0
20260905205635 82 357 4.0 6.0 0.00 0.00 0.00 76 1016.1
20260905205130 82 7 6.0 8.0 0.00 0.00 0.00 76 1016.0
20260905204629 82 62 6.0 8.0 0.00 0.00 0.00 77 1015.8
20260905204125 83 53 2.0 2.0 0.00 0.00 0.00 74 1016.0
20260905203625 82 17 4.0 6.0 0.00 0.00 0.00 76 1016.1
20260905203120 81 43 6.0 10.0 0.00 0.00 0.00 78 1016.2
20260905202615 81 48 6.0 7.0 0.00 0.00 0.00 79 1016.5
20260905202110 81 65 4.0 7.0 0.00 0.00 0.00 79 1016.3
20260905201606 82 66 7.0 8.0 0.00 0.00 0.00 79 1016.7
20260905201106 82 38 5.0 7.0 0.00 0.00 0.00 80 1016.6
20260905200601 82 274 3.0 4.0 0.00 0.00 0.00 78 1016.4
20260905200056 82 40 4.0 8.0 0.00 0.00 0.00 79 1016.5
20260905195549 82 355 2.0 2.0 0.00 0.00 0.00 79 1016.5
20260905195045 82 57 7.0 10.0 0.00 0.00 0.00 79 1016.5